Miscellaneous Local Product
Issued by NWS Hastings, NE

Home | Current Version | Previous Version | Graphics & Text | Print | Product List | Glossary On
Versions: 1 2 3 4 5 6 7 8 9 10 11 12 13 14 15 16 17 18 19 20 21 22 23 24 25 26 27 28 29 30 31 32 33 34 35 36 37 38 39 40 41 42 43 44 45 46 47 48 49 50
000
AXUS43 KGID 180902
MISGRI

GID CWA HOURLY WEATHER ROUNDUP
NATIONAL WEATHER SERVICE HASTINGS NE
400 AM CDT FRI APR 18 2014

NOTE: "FAIR" INDICATES FEW OR NO CLOUDS BELOW 12,000 FEET WITH NO
SIGNIFICANT WEATHER AND/OR OBSTRUCTIONS TO VISIBILITY.

...SOUTH CENTRAL NEBRASKA...

CITY           SKY/WX    TMP DP  RH WIND       PRES   REMARKS
GRAND ISLAND   CLEAR     39  29  67 S10       30.19F WCI  32
HASTINGS       CLEAR     39  28  64 S9        30.18F WCI  33
KEARNEY        CLEAR     36  28  75 S8        30.17S WCI  29
ORD            CLEAR     34  28  79 E3        30.14F
YORK           CLEAR     36  28  75 S7        30.22S WCI  30
AURORA         CLEAR     39  29  67 S8        30.20S WCI  34
LEXINGTON      CLEAR     38  33  81 SE6       30.14S WCI  34
HOLDREGE       CLEAR     36  31  81 S8        30.16S WCI  30
HEBRON         CLEAR     35  29  79 S5        30.24S HAZE    WCI  31

...NEBRASKA PANHANDLE...

CITY           SKY/WX    TMP DP  RH WIND       PRES   REMARKS
CHADRON        CLEAR     43  35  73 SW6       29.86F
ALLIANCE       CLEAR     38  34  85 S10       29.94S WCI  31
SCOTTSBLUFF    PTCLDY    45  34  65 E8        29.92F
SIDNEY         CLEAR     40  34  79 S14       29.98F WCI  32

...WESTERN AND NORTH CENTRAL NEBRASKA...

CITY           SKY/WX    TMP DP  RH WIND       PRES   REMARKS
VALENTINE      CLEAR     42  32  67 S14G23    30.01F
AINSWORTH      CLEAR     39  30  69 S15       30.04F WCI  31
ONEILL         CLEAR     37  26  63 SE7       30.13F WCI  31
BROKEN BOW     CLEAR     36  30  79 S8        30.12F WCI  30
IMPERIAL       CLEAR     39  35  86 S9        30.06F WCI  33
NORTH PLATTE   CLEAR     41  36  82 S12       30.09F
MCCOOK         CLEAR     39  37  92 S9        30.13F WCI  33

...EASTERN NEBRASKA...

CITY           SKY/WX    TMP DP  RH WIND       PRES   REMARKS
NORFOLK        CLEAR     38  26  62 S10       30.19F WCI  31
SO SIOUX CITY  CLEAR     30  25  81 SE8       30.25S WCI  22
TEKAMAH        CLEAR     27  21  78 W3        30.26R
COLUMBUS       CLEAR     36  25  64 SE7       30.21F WCI  30
ALBION         PTCLDY    32  25  76 SE5       30.18F WCI  27
OMAHA EPPLEY   PTCLDY    33  27  78 CALM      30.26S
OFFUTT AFB     CLEAR     28  28  99 E2        30.25S
MILLARD        CLEAR     34  28  79 CALM      30.25S
LINCOLN        CLEAR     38  27  64 S3        30.26S
NEBRASKA CITY  CLEAR     36  28  73 SW6       30.26S WCI  31
BEATRICE       CLEAR     37  31  78 S5        30.25S HAZE    WCI  34
FALLS CITY     CLEAR     33  30  88 E3        30.26F

...NORTHERN KANSAS...

CITY           SKY/WX    TMP DP  RH WIND       PRES   REMARKS
GOODLAND       CLEAR     37  34  89 S20       30.11F WCI  27
HILL CITY      CLEAR     40  36  86 S7        30.18S
PHILLIPSBURG   CLEAR     36  30  80 CALM      30.19F
SMITH CENTER   CLEAR     32  28  86 SE8       30.21S WCI  25
BELOIT         CLEAR     36  28  75 CALM      30.22F
HAYS           CLEAR     36  30  80 S9        30.20F WCI  29
RUSSELL        CLEAR     38  34  85 S13       30.19F WCI  30
CONCORDIA      PTCLDY    39  33  79 S12       30.23S WCI  32
SALINA         CLEAR     35  29  78 SE5       30.25F HAZE    WCI  31
TOPEKA         CLEAR     35  30  82 CALM      30.28S HAZE



USA.gov is the U.S. government's official web portal to all federal, state and local government web resources and services.